Language: 


Des rapports , des résumés tant et plus, au choix de chacun....


Données statistiques de la station
Quotidien Rapport Novembre 26, 2017 Unités:  Métrique    Anglais   les deux
« Précédent Jour
Suivant Jour »
Quotidien Hebdomadaire Mensuel Annuel Actuel
  Haut: Bas: Moyen:
Température: 8.5 °C -0.3 °C 3.1 °C
Pt de rosée: 6.0 °C -2.0 °C 1.9 °C
Humidité: 98 % 71 % 91 %
Vitesse du vent: 19.8 km/h 0.0 km/h 5.2 km/h
Rafales: 27.4 km/h - -
Vent:- - West
Pression: 1024.9 hPa 0.0 hPa -
Précipitation: 0.3 mm    
Historical Graphs
 
 
Données statistiques pour Novembre 26, 2017
Heure Température Point de rosée Pression Vent Vitesse du vent Refales Humidité Pluie (taux horaire)
00:01 1.6 °C 1.0 °C 1018.8 hPa West 5.8 km/h 7.9 km/h 93 % 0.0 mm
00:06 1.6 °C 1.0 °C 1018.8 hPa WSW 5.0 km/h 6.9 km/h 93 % 0.0 mm
00:11 1.6 °C 1.0 °C 1018.8 hPa West 4.7 km/h 8.7 km/h 94 % 0.0 mm
00:16 1.5 °C 1.0 °C 1018.8 hPa Calm   8.7 km/h 94 % 0.0 mm
00:21 1.4 °C 1.0 °C 1018.8 hPa Calm   4.7 km/h 93 % 0.0 mm
00:26 1.4 °C 1.0 °C 1018.8 hPa Calm   6.1 km/h 93 % 0.0 mm
00:31 1.4 °C 1.0 °C 1018.8 hPa West 5.8 km/h 8.7 km/h 94 % 0.0 mm
00:36 1.4 °C 1.0 °C 1018.8 hPa West 6.1 km/h 8.7 km/h 94 % 0.0 mm
00:41 1.5 °C 1.0 °C 1018.8 hPa Calm   9.7 km/h 94 % 0.0 mm
00:46 1.5 °C 1.0 °C 1018.8 hPa West 7.6 km/h 9.7 km/h 94 % 0.0 mm
00:51 1.5 °C 1.0 °C 1018.8 hPa West 5.8 km/h 9.3 km/h 94 % 0.0 mm
00:56 1.4 °C 1.0 °C 1018.8 hPa WSW 5.8 km/h 9.7 km/h 94 % 0.0 mm
01:01 1.4 °C 1.0 °C 1018.8 hPa West 5.0 km/h 9.7 km/h 94 % 0.0 mm
01:06 1.4 °C 1.0 °C 1018.8 hPa Calm   7.6 km/h 94 % 0.0 mm
01:11 1.4 °C 1.0 °C 1018.8 hPa WSW 6.4 km/h 8.7 km/h 94 % 0.0 mm
01:16 1.3 °C 1.0 °C 1018.8 hPa WSW 5.5 km/h 8.7 km/h 94 % 0.0 mm
01:21 1.2 °C 1.0 °C 1018.8 hPa WSW 6.9 km/h 7.6 km/h 94 % 0.0 mm
01:26 1.2 °C 1.0 °C 1018.8 hPa WSW 5.5 km/h 7.9 km/h 94 % 0.0 mm
01:32 1.2 °C 1.0 °C 1018.8 hPa Calm   8.7 km/h 94 % 0.0 mm
01:37 1.2 °C 1.0 °C 1018.8 hPa WSW 2.1 km/h 8.7 km/h 95 % 0.0 mm
01:47 1.1 °C 1.0 °C 1018.8 hPa West 6.4 km/h 9.3 km/h 95 % 0.0 mm
01:52 1.2 °C 1.0 °C 1018.8 hPa West 7.9 km/h 9.3 km/h 95 % 0.0 mm
01:57 1.2 °C 1.0 °C 1018.8 hPa West 6.9 km/h 9.3 km/h 95 % 0.0 mm
02:02 1.2 °C 1.0 °C 1018.8 hPa West 3.2 km/h 9.3 km/h 95 % 0.0 mm
02:07 1.2 °C 1.0 °C 1018.8 hPa West 5.0 km/h 7.2 km/h 95 % 0.0 mm
02:12 1.1 °C 1.0 °C 1018.8 hPa WNW 5.0 km/h 6.9 km/h 95 % 0.0 mm
02:17 1.1 °C 1.0 °C 1018.8 hPa West 4.3 km/h 7.2 km/h 95 % 0.0 mm
02:22 1.1 °C 1.0 °C 1018.8 hPa West 2.1 km/h 7.9 km/h 96 % 0.0 mm
02:27 1.1 °C 1.0 °C 1018.8 hPa WSW 7.9 km/h 7.9 km/h 96 % 0.0 mm
02:32 1.2 °C 1.0 °C 1018.8 hPa WSW 5.0 km/h 7.9 km/h 96 % 0.0 mm
02:37 1.2 °C 1.0 °C 1018.8 hPa West 4.0 km/h 9.0 km/h 96 % 0.0 mm
02:42 1.2 °C 1.0 °C 1018.8 hPa West 4.0 km/h 9.0 km/h 96 % 0.0 mm
02:47 1.2 °C 1.0 °C 1018.8 hPa Calm   7.9 km/h 96 % 0.0 mm
02:52 1.2 °C 1.0 °C 1018.8 hPa West 5.8 km/h 7.9 km/h 96 % 0.0 mm
02:57 1.1 °C 1.0 °C 1019.9 hPa West 8.7 km/h 10.1 km/h 96 % 0.0 mm
03:02 1.1 °C 1.0 °C 0.0 hPa West 7.6 km/h 9.7 km/h 96 % 0.0 mm
03:07 1.1 °C 1.0 °C 1019.9 hPa West 6.1 km/h 9.7 km/h 96 % 0.0 mm
03:12 1.1 °C 1.0 °C 1019.9 hPa WSW 6.9 km/h 7.6 km/h 96 % 0.0 mm
03:17 1.1 °C 1.0 °C 1019.9 hPa Calm   7.9 km/h 96 % 0.0 mm
03:22 1.0 °C 1.0 °C 1019.9 hPa WSW 6.4 km/h 7.9 km/h 96 % 0.0 mm
03:27 1.0 °C 1.0 °C 1019.9 hPa Calm   7.6 km/h 96 % 0.0 mm
03:32 1.0 °C 1.0 °C 1019.9 hPa West 4.7 km/h 7.6 km/h 96 % 0.0 mm
03:37 1.1 °C 1.0 °C 1019.9 hPa West 5.0 km/h 7.6 km/h 97 % 0.0 mm
03:42 1.1 °C 1.0 °C 1019.9 hPa Calm   7.6 km/h 97 % 0.0 mm
03:47 1.1 °C 1.0 °C 1019.9 hPa Calm   7.6 km/h 97 % 0.0 mm
03:52 1.0 °C 1.0 °C 1019.9 hPa West 6.1 km/h 7.2 km/h 97 % 0.0 mm
04:02 0.9 °C 1.0 °C 1019.9 hPa West 1.4 km/h 9.3 km/h 97 % 0.0 mm
04:07 0.9 °C 1.0 °C 1019.9 hPa West 6.9 km/h 9.3 km/h 97 % 0.0 mm
04:12 1.0 °C 1.0 °C 1019.9 hPa WSW 5.5 km/h 9.0 km/h 97 % 0.0 mm
04:17 1.0 °C 1.0 °C 1019.9 hPa Calm   9.0 km/h 97 % 0.0 mm
04:27 1.0 °C 1.0 °C 1018.8 hPa West 5.0 km/h 9.7 km/h 98 % 0.0 mm
04:32 1.0 °C 1.0 °C 1018.8 hPa West 5.8 km/h 9.7 km/h 98 % 0.0 mm
04:37 1.0 °C 1.0 °C 1018.8 hPa West 7.9 km/h 9.0 km/h 98 % 0.0 mm
04:42 0.9 °C 1.0 °C 1018.8 hPa WSW 9.0 km/h 9.0 km/h 98 % 0.0 mm
04:48 0.9 °C 1.0 °C 1018.8 hPa Calm   9.0 km/h 98 % 0.0 mm
04:53 0.9 °C 1.0 °C 1018.8 hPa Calm   7.9 km/h 98 % 0.0 mm
04:58 0.8 °C 1.0 °C 1018.8 hPa Calm   6.9 km/h 98 % 0.0 mm
05:03 0.7 °C 1.0 °C 1018.8 hPa Calm   7.9 km/h 98 % 0.0 mm
05:08 0.7 °C 1.0 °C 1018.8 hPa WSW 6.1 km/h 9.0 km/h 98 % 0.0 mm
05:13 0.7 °C 1.0 °C 1019.9 hPa Calm   9.0 km/h 98 % 0.0 mm
05:18 0.7 °C 1.0 °C 1019.9 hPa WSW 6.9 km/h 8.7 km/h 98 % 0.0 mm
05:23 0.6 °C 1.0 °C 1019.9 hPa Calm   8.7 km/h 98 % 0.0 mm
05:33 0.6 °C 1.0 °C 1019.9 hPa Calm     98 % 0.0 mm
05:38 0.5 °C 1.0 °C 1019.9 hPa Calm     98 % 0.0 mm
05:43 0.4 °C 1.0 °C 1018.8 hPa Calm     98 % 0.0 mm
05:48 0.4 °C 1.0 °C 1018.8 hPa Calm     98 % 0.0 mm
05:53 0.5 °C 1.0 °C 1018.8 hPa Calm     98 % 0.0 mm
05:58 0.4 °C 1.0 °C 1018.8 hPa Calm     98 % 0.0 mm
06:03 0.3 °C 1.0 °C 1018.8 hPa Calm     98 % 0.0 mm
06:08 0.1 °C 0.0 °C 1018.8 hPa Calm     98 % 0.0 mm
06:10 0.1 °C 0.0 °C 1018.8 hPa Calm     98 % 0.0 mm
06:15 0.0 °C -1.0 °C 1018.8 hPa Calm     98 % 0.0 mm
06:20 -0.1 °C -1.0 °C 1018.8 hPa Calm     98 % 0.0 mm
06:25 -0.1 °C -1.0 °C 1019.9 hPa Calm     98 % 0.0 mm
06:30 -0.1 °C -1.0 °C 1019.9 hPa Calm     98 % 0.0 mm
06:36 -0.2 °C -1.0 °C 1019.9 hPa Calm     98 % 0.0 mm
06:41 -0.2 °C -1.0 °C 1019.9 hPa Calm     98 % 0.0 mm
06:46 -0.2 °C -1.0 °C 1019.9 hPa Calm     98 % 0.0 mm
06:51 -0.2 °C -1.0 °C 1019.9 hPa Calm     98 % 0.0 mm
06:56 -0.3 °C -1.0 °C 1019.9 hPa Calm     98 % 0.0 mm
07:01 -0.3 °C -1.0 °C 1019.9 hPa Calm     98 % 0.0 mm
07:06 -0.2 °C -1.0 °C 1019.9 hPa Calm     98 % 0.0 mm
07:11 0.1 °C 0.0 °C 1019.9 hPa Calm   6.9 km/h 98 % 0.0 mm
07:16 0.1 °C 0.0 °C 1019.9 hPa Calm   6.9 km/h 98 % 0.0 mm
07:21 0.0 °C -1.0 °C 1019.9 hPa Calm   1.8 km/h 98 % 0.0 mm
07:26 0.0 °C -1.0 °C 1020.9 hPa West 6.9 km/h 6.9 km/h 98 % 0.0 mm
07:31 0.0 °C -1.0 °C 1020.9 hPa WSW 5.8 km/h 6.9 km/h 98 % 0.0 mm
07:36 0.2 °C 0.0 °C 1020.9 hPa Calm   6.9 km/h 98 % 0.0 mm
07:41 0.1 °C 0.0 °C 1020.9 hPa Calm   6.9 km/h 98 % 0.0 mm
07:46 0.2 °C 0.0 °C 1020.9 hPa Calm   6.4 km/h 98 % 0.0 mm
07:51 0.3 °C 1.0 °C 1020.9 hPa Calm   5.8 km/h 98 % 0.0 mm
07:56 0.4 °C 1.0 °C 1020.9 hPa Calm   8.7 km/h 98 % 0.0 mm
08:01 0.5 °C 1.0 °C 1020.9 hPa Calm   8.7 km/h 98 % 0.0 mm
08:06 0.5 °C 1.0 °C 1020.9 hPa Calm   5.8 km/h 98 % 0.0 mm
08:11 0.5 °C 1.0 °C 1021.9 hPa WSW 9.3 km/h 9.3 km/h 98 % 0.0 mm
08:16 0.6 °C 1.0 °C 1021.9 hPa WSW 8.7 km/h 9.3 km/h 98 % 0.0 mm
08:21 0.7 °C 1.0 °C 1021.9 hPa West 7.9 km/h 10.5 km/h 98 % 0.0 mm
08:26 0.8 °C 1.0 °C 1020.9 hPa West 5.8 km/h 10.5 km/h 98 % 0.0 mm
08:31 0.9 °C 1.0 °C 1020.9 hPa West 5.0 km/h 9.0 km/h 98 % 0.0 mm
08:36 0.9 °C 1.0 °C 1020.9 hPa Calm   9.0 km/h 98 % 0.0 mm
08:41 0.7 °C 1.0 °C 1020.9 hPa Calm   7.9 km/h 98 % 0.0 mm
08:46 0.7 °C 1.0 °C 1020.9 hPa Calm   7.2 km/h 98 % 0.0 mm
08:51 0.7 °C 1.0 °C 1020.9 hPa WSW 5.5 km/h 7.6 km/h 98 % 0.0 mm
08:56 0.7 °C 1.0 °C 1020.9 hPa WSW 7.2 km/h 7.6 km/h 98 % 0.0 mm
09:01 0.8 °C 1.0 °C 1020.9 hPa WSW 9.0 km/h 9.0 km/h 98 % 0.0 mm
09:07 0.8 °C 1.0 °C 1020.9 hPa WSW 7.6 km/h 9.3 km/h 98 % 0.0 mm
09:13 1.0 °C 1.0 °C 1021.9 hPa Calm   9.3 km/h 98 % 0.0 mm
09:18 1.2 °C 1.0 °C 1021.9 hPa WSW 2.1 km/h 10.1 km/h 98 % 0.0 mm
09:23 1.3 °C 1.0 °C 1021.9 hPa WSW 6.1 km/h 10.1 km/h 98 % 0.0 mm
09:28 1.3 °C 1.0 °C 1021.9 hPa WSW 5.0 km/h 9.0 km/h 98 % 0.0 mm
09:33 1.4 °C 1.0 °C 1021.9 hPa Calm   9.0 km/h 98 % 0.0 mm
09:38 1.6 °C 2.0 °C 1021.9 hPa Calm   7.9 km/h 98 % 0.0 mm
09:44 1.8 °C 2.0 °C 1021.9 hPa Calm   6.1 km/h 98 % 0.0 mm
09:49 2.0 °C 2.0 °C 1021.9 hPa West 9.3 km/h 9.3 km/h 98 % 0.0 mm
09:54 2.4 °C 3.0 °C 1021.9 hPa West 7.6 km/h 9.7 km/h 98 % 0.0 mm
09:59 2.5 °C 3.0 °C 1021.9 hPa West 6.4 km/h 9.7 km/h 98 % 0.0 mm
10:04 2.6 °C 3.0 °C 1021.9 hPa Calm   8.7 km/h 98 % 0.0 mm
10:09 2.8 °C 3.0 °C 1021.9 hPa WSW 5.5 km/h 7.6 km/h 98 % 0.0 mm
10:14 3.0 °C 3.0 °C 1022.9 hPa Calm   7.6 km/h 98 % 0.0 mm
10:19 3.1 °C 3.0 °C 1022.9 hPa WSW 7.9 km/h 9.0 km/h 98 % 0.0 mm
10:24 3.5 °C 4.0 °C 1022.9 hPa WSW 6.9 km/h 9.0 km/h 98 % 0.0 mm
10:29 3.8 °C 4.0 °C 1022.9 hPa WSW 9.0 km/h 9.7 km/h 98 % 0.0 mm
10:34 4.0 °C 4.0 °C 1022.9 hPa West 10.1 km/h 10.1 km/h 98 % 0.0 mm
10:39 4.3 °C 4.0 °C 1022.9 hPa WSW 8.7 km/h 10.5 km/h 98 % 0.0 mm
10:44 4.6 °C 5.0 °C 1022.9 hPa West 6.4 km/h 12.2 km/h 98 % 0.0 mm
10:49 4.9 °C 5.0 °C 1022.9 hPa West 10.1 km/h 13.0 km/h 98 % 0.0 mm
10:54 5.0 °C 5.0 °C 1022.9 hPa West 12.6 km/h 13.7 km/h 98 % 0.0 mm
10:59 5.3 °C 6.0 °C 1022.9 hPa WSW 11.9 km/h 13.7 km/h 98 % 0.0 mm
11:04 5.6 °C 6.0 °C 1022.9 hPa WSW 16.3 km/h 16.3 km/h 98 % 0.3 mm
11:09 5.8 °C 6.0 °C 1022.9 hPa WSW 10.5 km/h 16.3 km/h 98 % 0.3 mm
11:14 6.1 °C 6.0 °C 1022.9 hPa West 10.8 km/h 16.3 km/h 98 % 0.3 mm
11:19 6.2 °C 6.0 °C 1022.9 hPa WSW 8.7 km/h 13.7 km/h 97 % 0.3 mm
11:24 6.4 °C 6.0 °C 1022.9 hPa SW 10.1 km/h 14.8 km/h 97 % 0.3 mm
11:29 6.5 °C 6.0 °C 1022.9 hPa West 11.9 km/h 14.8 km/h 95 % 0.3 mm
11:34 6.5 °C 6.0 °C 1022.9 hPa WSW 9.7 km/h 15.8 km/h 94 % 0.3 mm
11:39 6.5 °C 6.0 °C 1022.9 hPa West 13.0 km/h 17.7 km/h 93 % 0.3 mm
11:44 6.5 °C 6.0 °C 1022.9 hPa WSW 12.2 km/h 17.7 km/h 91 % 0.3 mm
11:49 6.9 °C 6.0 °C 1022.9 hPa West 16.6 km/h 19.1 km/h 91 % 0.3 mm
11:54 7.1 °C 6.0 °C 1022.9 hPa West 16.3 km/h 19.1 km/h 89 % 0.3 mm
11:58 7.2 °C 6.0 °C 1022.9 hPa WNW 6.9 km/h 21.2 km/h 87 % 0.3 mm
12:03 7.4 °C 5.0 °C 1022.9 hPa WSW 11.9 km/h 21.2 km/h 86 % 0.0 mm
12:08 7.4 °C 5.0 °C 1022.9 hPa West 16.6 km/h 18.3 km/h 86 % 0.0 mm
12:13 7.6 °C 5.0 °C 1023.9 hPa WSW 5.5 km/h 18.3 km/h 84 % 0.0 mm
12:18 7.8 °C 5.0 °C 1023.9 hPa West 13.7 km/h 22.7 km/h 84 % 0.0 mm
12:23 7.9 °C 5.0 °C 1023.9 hPa West 11.9 km/h 22.7 km/h 82 % 0.0 mm
12:28 8.0 °C 6.0 °C 1022.9 hPa WSW 12.6 km/h 16.9 km/h 82 % 0.0 mm
12:31 8.1 °C 5.0 °C 1022.9 hPa WSW 9.3 km/h 16.6 km/h 81 % 0.0 mm
12:36 8.2 °C 6.0 °C 1022.9 hPa West 6.1 km/h 17.7 km/h 82 % 0.0 mm
12:41 8.1 °C 5.0 °C 1022.9 hPa WNW 9.7 km/h 21.9 km/h 79 % 0.0 mm
12:46 8.0 °C 4.0 °C 1022.9 hPa NNE 10.1 km/h 21.9 km/h 76 % 0.0 mm
12:51 8.1 °C 5.0 °C 1022.9 hPa WNW 6.4 km/h 19.8 km/h 77 % 0.0 mm
12:56 8.2 °C 5.0 °C 1022.9 hPa WSW 16.3 km/h 23.8 km/h 77 % 0.0 mm
13:01 8.5 °C 5.0 °C 1022.9 hPa West 16.3 km/h 23.8 km/h 76 % 0.0 mm
13:06 8.5 °C 5.0 °C 1022.9 hPa WNW 16.6 km/h 19.5 km/h 74 % 0.0 mm
13:11 8.5 °C 5.0 °C 1022.9 hPa NW 9.0 km/h 27.4 km/h 76 % 0.0 mm
13:16 8.3 °C 4.0 °C 1022.9 hPa WNW 16.6 km/h 27.4 km/h 74 % 0.0 mm
13:21 8.0 °C 4.0 °C 1022.9 hPa SW 16.3 km/h 20.1 km/h 72 % 0.0 mm
13:26 8.1 °C 4.0 °C 1022.9 hPa West 11.9 km/h 19.8 km/h 73 % 0.0 mm
13:31 8.3 °C 4.0 °C 1022.9 hPa West 10.1 km/h 19.8 km/h 74 % 0.0 mm
13:36 8.3 °C 4.0 °C 1022.9 hPa WSW 9.0 km/h 17.2 km/h 74 % 0.0 mm
13:37 8.3 °C 5.0 °C 1022.9 hPa West 17.7 km/h 17.7 km/h 75 % 0.0 mm
13:42 8.4 °C 5.0 °C 1022.9 hPa West 19.5 km/h 19.8 km/h 75 % 0.0 mm
13:47 8.5 °C 5.0 °C 1022.9 hPa WNW 10.1 km/h 19.8 km/h 75 % 0.0 mm
13:52 8.5 °C 4.0 °C 1022.9 hPa West 10.1 km/h 19.5 km/h 73 % 0.0 mm
13:53 8.5 °C 4.0 °C 1022.9 hPa West 10.1 km/h 17.2 km/h 72 % 0.0 mm
13:58 8.4 °C 4.0 °C 1022.9 hPa WNW 13.0 km/h 17.2 km/h 71 % 0.0 mm
14:03 8.1 °C 4.0 °C 1022.9 hPa West 9.7 km/h 17.2 km/h 72 % 0.0 mm
14:08 8.1 °C 4.0 °C 1022.9 hPa WSW 4.7 km/h 16.9 km/h 73 % 0.0 mm
14:13 8.3 °C 4.0 °C 1022.9 hPa WSW 9.0 km/h 14.0 km/h 74 % 0.0 mm
14:18 8.5 °C 5.0 °C 1022.9 hPa West 14.0 km/h 20.6 km/h 74 % 0.0 mm
14:23 8.5 °C 4.0 °C 1022.9 hPa West 19.5 km/h 20.6 km/h 73 % 0.0 mm
14:28 8.5 °C 4.0 °C 1022.9 hPa West 19.8 km/h 21.6 km/h 73 % 0.0 mm
14:33 8.5 °C 4.0 °C 1022.9 hPa WSW 16.6 km/h 22.7 km/h 73 % 0.0 mm
14:38 8.4 °C 4.0 °C 1022.9 hPa WSW 9.0 km/h 22.7 km/h 73 % 0.0 mm
14:43 8.3 °C 4.0 °C 1023.9 hPa West 9.3 km/h 17.2 km/h 71 % 0.0 mm
14:48 8.3 °C 4.0 °C 1023.9 hPa West 16.3 km/h 19.5 km/h 72 % 0.0 mm
14:53 8.2 °C 4.0 °C 1023.9 hPa West 12.6 km/h 19.5 km/h 73 % 0.0 mm
14:58 8.2 °C 4.0 °C 1022.9 hPa West 12.6 km/h 18.3 km/h 73 % 0.0 mm
15:03 8.3 °C 4.0 °C 1022.9 hPa WSW 13.7 km/h 18.3 km/h 73 % 0.0 mm
15:08 8.4 °C 4.0 °C 1022.9 hPa West 17.2 km/h 23.0 km/h 73 % 0.0 mm
15:13 8.3 °C 4.0 °C 1022.9 hPa West 14.0 km/h 23.0 km/h 72 % 0.0 mm
15:18 8.1 °C 4.0 °C 1022.9 hPa WSW 9.3 km/h 20.6 km/h 72 % 0.0 mm
15:23 8.1 °C 4.0 °C 1022.9 hPa West 13.7 km/h 16.9 km/h 73 % 0.0 mm
15:28 7.9 °C 3.0 °C 1022.9 hPa West 12.6 km/h 24.8 km/h 73 % 0.0 mm
15:33 7.8 °C 3.0 °C 1022.9 hPa West 11.9 km/h 24.8 km/h 74 % 0.0 mm
15:38 7.7 °C 3.0 °C 1022.9 hPa West 12.2 km/h 19.1 km/h 74 % 0.0 mm
15:43 7.7 °C 3.0 °C 1022.9 hPa WSW 17.7 km/h 19.5 km/h 74 % 0.0 mm
15:48 7.5 °C 4.0 °C 1022.9 hPa West 13.7 km/h 19.8 km/h 75 % 0.0 mm
15:53 7.4 °C 3.0 °C 1022.9 hPa WSW 12.2 km/h 19.8 km/h 75 % 0.0 mm
15:58 7.1 °C 3.0 °C 1022.9 hPa West 9.0 km/h 16.3 km/h 76 % 0.0 mm
16:03 6.9 °C 3.0 °C 1022.9 hPa West 9.3 km/h 15.4 km/h 76 % 0.0 mm
16:08 6.7 °C 3.0 °C 1022.9 hPa West 12.2 km/h 15.4 km/h 77 % 0.0 mm
16:13 6.4 °C 3.0 °C 1022.9 hPa West 9.0 km/h 12.2 km/h 77 % 0.0 mm
16:18 6.2 °C 3.0 °C 1022.9 hPa WSW 9.0 km/h 12.2 km/h 78 % 0.0 mm
16:20 6.2 °C 3.0 °C 1022.9 hPa West 9.0 km/h 11.9 km/h 78 % 0.0 mm
16:25 6.0 °C 3.0 °C 1022.9 hPa West 9.0 km/h 13.7 km/h 79 % 0.0 mm
16:30 5.8 °C 3.0 °C 1022.9 hPa WSW 9.0 km/h 14.8 km/h 80 % 0.0 mm
16:35 5.7 °C 3.0 °C 1022.9 hPa West 12.6 km/h 14.8 km/h 81 % 0.0 mm
16:40 5.6 °C 3.0 °C 1022.9 hPa West 12.6 km/h 14.0 km/h 82 % 0.0 mm
16:45 5.5 °C 3.0 °C 1022.9 hPa West 11.9 km/h 13.7 km/h 83 % 0.0 mm
16:50 5.3 °C 3.0 °C 1022.9 hPa WSW 8.7 km/h 14.0 km/h 83 % 0.0 mm
16:55 5.2 °C 3.0 °C 1022.9 hPa WSW 11.6 km/h 14.0 km/h 84 % 0.0 mm
17:00 5.1 °C 3.0 °C 1022.9 hPa West 10.1 km/h 13.7 km/h 84 % 0.0 mm
17:05 5.0 °C 3.0 °C 1022.9 hPa WSW 8.7 km/h 13.7 km/h 84 % 0.0 mm
17:10 4.9 °C 3.0 °C 1022.9 hPa West 9.7 km/h 11.6 km/h 85 % 0.0 mm
17:15 4.7 °C 3.0 °C 1022.9 hPa WSW 9.3 km/h 11.1 km/h 85 % 0.0 mm
17:20 4.6 °C 3.0 °C 1022.9 hPa West 6.4 km/h 11.1 km/h 85 % 0.0 mm
17:25 4.5 °C 3.0 °C 1023.9 hPa WSW 6.1 km/h 9.7 km/h 86 % 0.0 mm
17:30 4.3 °C 2.0 °C 1023.9 hPa WSW 9.3 km/h 10.1 km/h 86 % 0.0 mm
17:35 4.3 °C 2.0 °C 1023.9 hPa WSW 5.5 km/h 11.6 km/h 86 % 0.0 mm
17:40 4.2 °C 3.0 °C 1022.9 hPa Calm   11.6 km/h 87 % 0.0 mm
17:45 4.2 °C 3.0 °C 1022.9 hPa West 6.1 km/h 7.6 km/h 87 % 0.0 mm
17:50 4.1 °C 2.0 °C 1022.9 hPa West 6.9 km/h 7.6 km/h 87 % 0.0 mm
17:55 4.1 °C 2.0 °C 1022.9 hPa Calm   7.6 km/h 87 % 0.0 mm
18:00 4.1 °C 2.0 °C 1022.9 hPa WSW 5.5 km/h 5.8 km/h 87 % 0.0 mm
18:05 3.8 °C 2.0 °C 1022.9 hPa Calm   5.5 km/h 87 % 0.0 mm
18:11 3.8 °C 2.0 °C 1023.9 hPa Calm   4.3 km/h 87 % 0.0 mm
18:16 3.8 °C 2.0 °C 1023.9 hPa Calm   2.1 km/h 87 % 0.0 mm
18:21 3.8 °C 2.0 °C 1023.9 hPa Calm   2.1 km/h 87 % 0.0 mm
18:26 3.8 °C 2.0 °C 1023.9 hPa Calm     87 % 0.0 mm
18:31 3.3 °C 2.0 °C 1023.9 hPa Calm   5.8 km/h 88 % 0.0 mm
18:36 3.3 °C 2.0 °C 1023.9 hPa Calm   5.8 km/h 88 % 0.0 mm
18:41 3.3 °C 2.0 °C 1024.9 hPa Calm   5.8 km/h 89 % 0.0 mm
18:42 3.3 °C 2.0 °C 1024.9 hPa Calm   3.2 km/h 89 % 0.0 mm
18:47 3.2 °C 2.0 °C 1024.9 hPa Calm   5.0 km/h 89 % 0.0 mm
18:52 3.1 °C 2.0 °C 1024.9 hPa Calm   5.8 km/h 89 % 0.0 mm
18:57 3.1 °C 2.0 °C 1023.9 hPa Calm   5.8 km/h 89 % 0.0 mm
19:02 3.1 °C 2.0 °C 1023.9 hPa Calm     89 % 0.0 mm
19:07 3.1 °C 2.0 °C 1023.9 hPa Calm     89 % 0.0 mm
19:12 2.4 °C 1.0 °C 1024.9 hPa Calm     89 % 0.0 mm
19:17 2.2 °C 1.0 °C 1024.9 hPa Calm     89 % 0.0 mm
19:22 2.2 °C 1.0 °C 1024.9 hPa Calm   4.3 km/h 89 % 0.0 mm
19:27 2.2 °C 1.0 °C 1024.9 hPa Calm   5.0 km/h 89 % 0.0 mm
19:32 2.2 °C 1.0 °C 1024.9 hPa WSW 5.5 km/h 5.5 km/h 89 % 0.0 mm
19:37 2.2 °C 1.0 °C 1024.9 hPa West 7.6 km/h 7.6 km/h 89 % 0.0 mm
19:42 2.7 °C 2.0 °C 1023.9 hPa Calm   7.6 km/h 93 % 0.0 mm
19:47 2.7 °C 2.0 °C 1023.9 hPa Calm   6.4 km/h 93 % 0.0 mm
19:52 2.7 °C 2.0 °C 1023.9 hPa Calm   6.1 km/h 92 % 0.0 mm
19:57 2.5 °C 2.0 °C 1024.9 hPa Calm     92 % 0.0 mm
20:02 2.5 °C 2.0 °C 1024.9 hPa Calm     91 % 0.0 mm
20:07 2.3 °C 1.0 °C 1024.9 hPa Calm     91 % 0.0 mm
20:12 2.1 °C 1.0 °C 1024.9 hPa Calm     91 % 0.0 mm
20:17 2.0 °C 1.0 °C 1024.9 hPa WSW 4.0 km/h 4.0 km/h 91 % 0.0 mm
20:22 2.0 °C 1.0 °C 1024.9 hPa Calm   4.0 km/h 91 % 0.0 mm
20:32 2.1 °C 1.0 °C 1023.9 hPa Calm   1.8 km/h 92 % 0.0 mm
20:37 2.3 °C 2.0 °C 1023.9 hPa West 5.8 km/h 5.8 km/h 93 % 0.0 mm
20:42 2.3 °C 2.0 °C 1023.9 hPa Calm   5.8 km/h 93 % 0.0 mm
20:47 2.1 °C 1.0 °C 1023.9 hPa Calm   5.8 km/h 93 % 0.0 mm
20:52 2.0 °C 1.0 °C 1023.9 hPa Calm   5.8 km/h 93 % 0.0 mm
20:57 2.0 °C 1.0 °C 1023.9 hPa West 2.6 km/h 5.8 km/h 93 % 0.0 mm
21:02 2.2 °C 1.0 °C 1023.9 hPa Calm   6.9 km/h 93 % 0.0 mm
21:07 2.1 °C 1.0 °C 1023.9 hPa Calm   6.9 km/h 94 % 0.0 mm
21:12 2.0 °C 1.0 °C 1023.9 hPa Calm     93 % 0.0 mm
21:17 2.1 °C 1.0 °C 1023.9 hPa West 5.5 km/h 7.6 km/h 93 % 0.0 mm
21:22 2.1 °C 1.0 °C 1023.9 hPa West 5.5 km/h 7.6 km/h 94 % 0.0 mm
21:27 2.1 °C 1.0 °C 1023.9 hPa West 4.3 km/h 6.9 km/h 94 % 0.0 mm
21:33 2.1 °C 1.0 °C 1023.9 hPa Calm   7.9 km/h 94 % 0.0 mm
21:38 2.1 °C 1.0 °C 1023.9 hPa West 5.0 km/h 7.9 km/h 94 % 0.0 mm
21:43 2.1 °C 1.0 °C 1023.9 hPa West 2.1 km/h 6.9 km/h 94 % 0.0 mm
21:48 2.1 °C 1.0 °C 1023.9 hPa Calm   6.1 km/h 93 % 0.0 mm
21:53 1.9 °C 1.0 °C 1023.9 hPa Calm   5.5 km/h 93 % 0.0 mm
21:58 1.8 °C 1.0 °C 1023.9 hPa West 1.4 km/h 6.4 km/h 93 % 0.0 mm
22:03 1.7 °C 1.0 °C 1023.9 hPa Calm   6.4 km/h 93 % 0.0 mm
22:08 1.7 °C 1.0 °C 1023.9 hPa Calm   5.8 km/h 93 % 0.0 mm
22:13 1.7 °C 1.0 °C 1023.9 hPa West 6.4 km/h 6.4 km/h 94 % 0.0 mm
22:18 1.6 °C 1.0 °C 1023.9 hPa Calm   6.4 km/h 94 % 0.0 mm
22:23 1.6 °C 1.0 °C 1023.9 hPa Calm   5.8 km/h 93 % 0.0 mm
22:28 1.2 °C 1.0 °C 1023.9 hPa Calm     93 % 0.0 mm
22:32 1.0 °C 0.0 °C 1023.9 hPa Calm     92 % 0.0 mm
22:37 0.9 °C 0.0 °C 1023.9 hPa Calm     92 % 0.0 mm
22:42 0.6 °C 0.0 °C 1023.9 hPa Calm   4.0 km/h 92 % 0.0 mm
22:47 0.5 °C 0.0 °C 1023.9 hPa Calm   4.0 km/h 92 % 0.0 mm
22:52 0.4 °C -1.0 °C 1023.9 hPa Calm     92 % 0.0 mm
22:57 0.3 °C 0.0 °C 1023.9 hPa Calm     93 % 0.0 mm
23:02 0.2 °C -1.0 °C 1023.9 hPa Calm     93 % 0.0 mm
23:07 0.1 °C -1.0 °C 1023.9 hPa Calm     93 % 0.0 mm
23:12 0.1 °C -1.0 °C 1023.9 hPa Calm     94 % 0.0 mm
23:17 0.0 °C -2.0 °C 1023.9 hPa Calm     94 % 0.0 mm
23:22 0.0 °C -2.0 °C 1023.9 hPa Calm     94 % 0.0 mm
23:27 0.0 °C -2.0 °C 1023.9 hPa Calm     94 % 0.0 mm
23:32 0.0 °C -1.0 °C 1023.9 hPa Calm     95 % 0.0 mm
23:37 0.1 °C 0.0 °C 1023.9 hPa Calm     95 % 0.0 mm
23:42 0.3 °C 0.0 °C 1022.9 hPa Calm     96 % 0.0 mm
23:47 0.3 °C 0.0 °C 1022.9 hPa Calm     97 % 0.0 mm
23:52 0.4 °C 0.0 °C 1022.9 hPa Calm     97 % 0.0 mm
23:57 0.6 °C 1.0 °C 1023.9 hPa Calm   5.8 km/h 97 % 0.0 mm
Le Gheer Warneton
Courtoisie de Weather Underground - 2.25 mb

Mise a jour : 16-12-17 15:52:10
Généré par Cumulus 1.9.4 (1099)